Погода в Бильбао

Испания     43°15′49″N   2°56′17″W
темп.,
°C
ветер,
м/с
пор.,
м/с
влажн.,
%
обл.,
%
осадки,
мм/ч
давл.,
гПа
погр.,
м
20 мая, пт
пт2023:00+17ююз119099 0.0 101724
02:00+16ссз1294100 0.0 101872
05:00+16ю2382100 0.0 101759
08:00+17в1180100 0.0 101971
11:00+20с2270100 0.0 1022704
14:00+21ссв3268100 0.0 1023640
17:00+20с3366100 0.0 1024751
20:00+18с2272100 0.0 1024490
21 мая, сб
сб2123:00+15ссз118718 0.0 102526
02:00+14ююв22919 0.0 102258
05:00+14ююв1189100 0.0 102041
08:00+16ююв127996 0.0 101879
11:00+26ю1442100 0.0 1017527
14:00+32ю362798 0.0 1015989
17:00+31ссз1333100 0.0 1014829
20:00+22с2265100 0.0 1013102
22 мая, вс
вс2223:00+18сз2582100 0.0 1017213
02:00+16ююз129457 0.4 101660
05:00+16ю2293100 0.0 101346
08:00+17ю2486100 0.0 101185
11:00+26ююз1445100 0.0 1010524
14:00+27зсз2540100 0.0 10101048
17:00+20с347738 0.3 1011428
20:00+18с3687100 1.6 1012713
23 мая, пн
пн2323:00+16сз029693 3.6 1015114
02:00+16сз2595100 3.8 1014533
05:00+15ссз1395100 0.2 1014245
08:00+15ссз149189 0.3 1014406
11:00+16ссз1274100 0.1 1014643
14:00+17ссз2364100 0.1 1014788
17:00+15с2478100 0.1 1014592
20:00+14ссз3692100 0.6 1015714
24 мая, вт
вт2423:00+13ссз1290100 0.3 1016167
02:00+12ссз0192100 0.6 101696
05:00+12зсз0192100 0.4 101538
08:00+12зсз119089 0.6 101586
11:00+13ссз148697 0.2 1015584
14:00+14ссз357399 0.9 10151090
17:00+14сз4671100 0.9 10161167
20:00+14ссз2564100 0.9 10161045